Temp
87 93 97 89 79 83 66 69 84 79 79 83 80 80 76 73 75 69 89 90 90 90 90 88 81 82 82 82 83 83 83 83 83 83 84 84 84 84 84 84 84 84 84 84 84 84 84 84 84
98 95 94 91 83 71 75 82 80 83 85 88 84 81 81 71 79 78 84 89 91 94 95 93 80 83 83 83 83 83 84 84 84 84 84 84 84 84 85 84 84 84 84 84 84 84 84 84 84
99 98 92 89 85 76 75 82 83 85 87 85 82 87 84 77 84 88 92 92 94 92 92 89 82 83 83 83 83 83 84 83 84 84 84 84 85 85 85 85 84 84 84 84 84 84 84 84 84
98 96 95 83 79 81 82 85 86 84 86 87 87 79 86 91 88 93 93 94 94 92 92 85 83 83 83 83 83 83 84 84 83 84 85 85 85 85 85 85 85 85 84 84 84 84 84 84 84
100 97 88 83 80 84 88 88 88 85 85 85 88 80 80 87 92 93 93 94 93 95 95 93 82 83 83 83 84 84 84 84 84 84 84 85 85 85 85 85 85 85 85 84 84 84 84 84 84
94 95 86 80 81 85 88 90 88 85 86 84 85 81 81 90 90 92 94 91 94 96 93 93 83 83 83 83 84 84 84 84 84 84 85 85 85 85 85 85 85 85 85 85 84 84 84 84 84
93 91 83 84 81 82 85 92 87 86 84 84 90 81 84 87 92 94 93 95 95 96 91 93 93 88 84 84 84 84 84 84 85 85 85 85 85 85 85 85 85 85 85 85 85 85 84 84 83
98 94 83 86 83 82 90 90 92 89 84 94 93 80 79 88 92 95 95 93 92 95 95 91 91 91 91 91 84 84 85 85 85 85 85 85 85 85 85 85 84 85 85 85 85 84 83 83 82
97 89 85 84 84 86 92 88 92 94 87 88 91 90 92 92 93 92 90 87 90 93 93 94 93 90 89 91 89 86 85 85 85 86 85 86 97 95 92 85 84 84 85 84 84 83 82 82 82
93 89 87 93 94 91 90 91 89 87 86 86 86 91 92 90 90 89 88 87 89 90 92 95 94 91 92 95 90 90 92 94 94 93 91 94 94 94 91 89 83 84 84 84 83 83 83 86 97
95 88 93 93 95 97 92 90 93 88 84 88 85 87 88 88 88 89 90 91 92 92 94 92 93 91 92 91 93 94 94 95 93 91 91 93 93 95 98 97 96 95 86 97 94 94 96 90 92
89 96 96 96 95 96 92 95 90 89 90 95 94 91 89 87 88 90 90 91 92 91 92 93 93 90 91 88 92 93 94 94 94 94 90 90 92 92 92 96 95 92 97 92 93 95 90 89 89
92 95 97 99 96 97 97 92 90 89 93 96 94 90 88 89 89 91 92 93 92 91 92 93 92 88 89 88 92 93 92 94 95 94 92 93 93 88 91 90 90 90 95 96 91 91 90 88 90
96 96 96 98 96 96 92 90 91 92 96 92 90 89 90 90 91 90 91 90 90 91 91 93 91 89 89 89 88 90 92 94 94 95 94 90 92 87 91 91 91 91 94 94 92 89 88 88 90
96 90 90 93 95 91 95 84 85 93 93 90 89 89 90 90 92 90 91 90 91 92 92 92 91 90 88 88 88 90 93 94 94 94 91 90 89 87 87 91 89 91 90 87 89 88 90 90 90
91 92 85 91 92 92 92 83 89 94 91 88 89 89 88 90 92 92 92 92 92 92 90 91 94 93 90 89 90 91 93 94 94 95 94 90 89 88 88 89 90 91 89 90 90 90 89 89 89
90 82 85 85 93 88 88 85 91 94 92 90 88 89 89 89 90 91 93 93 93 91 90 89 90 90 90 88 90 90 91 90 88 91 91 91 89 89 89 90 90 88 88 84 88 89 87 87 88
81 83 87 85 88 89 86 88 88 92 92 91 89 90 89 89 90 92 93 94 94 92 91 89 90 88 88 86 85 89 89 91 92 93 90 90 88 89 87 88 88 88 84 88 89 83 88 85 86
90 87 85 90 92 88 87 87 90 89 91 91 90 89 90 90 94 94 93 94 94 92 90 89 88 87 88 86 88 89 90 91 90 94 89 89 90 89 88 89 87 87 86 87 85 85 84 86 88
89 85 85 91 91 89 89 86 91 92 88 91 91 91 90 92 93 92 92 94 94 91 90 88 88 87 87 90 89 91 89 94 92 94 90 90 90 88 88 87 87 86 90 84 83 82 84 87 87
87 85 86 86 87 90 88 83 87 92 92 91 94 94 94 92 92 91 91 92 93 91 90 89 88 87 87 88 89 88 87 88 90 89 88 89 88 88 87 87 88 86 85 88 84 83 81 83 85
82 92 90 87 84 76 88 75 85 91 88 89 91 92 94 93 93 93 92 92 93 92 92 90 89 88 88 88 89 86 88 89 93 92 94 92 89 89 88 87 86 84 88 85 84 86 82 81 83
84 94 89 88 85 83 82 78 83 89 87 90 92 93 95 96 95 93 93 93 94 94 93 92 89 88 88 88 87 89 86 92 93 93 88 86 88 88 89 87 85 84 86 83 83 82 80 85 83
92 88 87 88 85 73 81 79 80 86 87 93 96 95 95 96 96 94 95 94 93 95 94 92 89 87 88 88 87 86 87 87 91 89 89 89 91 89 87 86 85 85 85 83 84 82 81 81 81
88 83 71 69 70 70 84 79 81 92 96 97 98 98 96 97 96 94 93 93 92 92 92 92 89 86 88 88 87 87 86 87 86 87 88 89 90 90 86 84 83 86 84 84 83 81 82 81 81
83 83 74 62 67 72 82 73 82 94 99 101 102 101 100 98 99 96 94 94 92 92 92 91 90 87 88 88 87 87 87 90 90 89 91 90 90 90 89 85 85 85 85 84 83 84 84 83 82
83 79 89 79 81 75 80 82 90 95 95 98 98 98 99 98 98 97 96 95 94 93 92 91 89 88 89 89 87 86 87 87 90 90 89 90 88 91 87 85 85 85 85 83 82 84 82 82 82
87 90 77 80 65 63 74 77 79 86 91 96 97 97 99 99 98 100 98 97 96 96 95 93 92 89 90 90 89 89 88 87 88 89 86 87 88 86 85 85 85 84 83 83 81 83 83 81 83
82 81 82 84 79 69 67 74 91 88 92 94 99 99 101 100 98 99 100 100 98 98 97 95 93 90 90 91 90 89 89 90 88 88 84 85 84 84 83 83 83 83 82 82 80 80 82 81 80
89 83 83 74 70 78 76 78 97 96 96 98 99 103 105 102 100 99 101 101 99 97 98 97 96 94 93 93 90 89 90 89 88 85 84 82 80 82 80 81 79 81 83 82 80 80 83 81 80
MSLP
1009.44 1009.26 1008.72 1008.48 1007.02 1005.00 1006.87 1007.43 1006.64 1007.06 1007.53 1008.33 1009.04 1009.15 1010.10 1011.12 1010.90 1012.05 1013.36 1014.20 1014.44 1014.69 1015.18 1015.70 1016.30 1016.23 1016.43 1016.58 1016.66 1016.84 1016.98 1017.13 1017.42 1017.55 1017.76 1017.99 1018.14 1018.36 1018.42 1018.52 1018.72 1018.69 1018.76 1018.73 1018.80 1018.81 1018.72 1018.78 1018.77
1007.99 1008.34 1007.94 1005.70 1003.89 1003.74 1005.02 1005.73 1005.93 1006.64 1007.56 1008.19 1008.82 1009.30 1009.51 1011.06 1011.83 1012.81 1013.35 1014.19 1014.31 1014.23 1014.67 1015.50 1016.44 1016.50 1016.66 1016.89 1016.92 1017.16 1017.27 1017.55 1017.69 1017.88 1018.04 1018.30 1018.47 1018.54 1018.62 1018.82 1018.95 1019.00 1018.96 1019.04 1019.01 1018.91 1018.93 1019.00 1018.96
1007.54 1007.39 1005.56 1003.91 1003.20 1003.28 1004.44 1005.36 1006.25 1007.12 1007.61 1007.82 1008.44 1009.02 1009.53 1010.99 1011.88 1011.96 1013.28 1014.04 1014.02 1014.70 1014.90 1015.89 1016.47 1016.64 1016.83 1017.01 1017.25 1017.41 1017.59 1017.79 1017.96 1018.21 1018.38 1018.54 1018.67 1018.74 1018.88 1019.05 1019.18 1019.21 1019.22 1019.16 1019.14 1019.07 1019.06 1019.06 1019.03
1006.56 1006.14 1004.84 1003.51 1003.35 1004.38 1004.65 1005.43 1006.37 1006.99 1007.63 1008.10 1008.40 1009.26 1010.67 1011.16 1011.66 1012.11 1013.41 1013.78 1014.06 1014.88 1015.32 1016.44 1016.67 1016.83 1017.03 1017.25 1017.49 1017.68 1017.91 1018.10 1018.29 1018.46 1018.53 1018.65 1018.76 1018.86 1019.01 1019.16 1019.25 1019.30 1019.27 1019.23 1019.16 1019.12 1019.14 1019.04 1018.97
1005.87 1004.67 1002.75 1002.85 1003.64 1004.31 1004.89 1005.69 1006.20 1006.41 1007.23 1007.97 1008.25 1009.33 1010.84 1011.86 1012.27 1012.84 1013.52 1013.83 1013.95 1014.50 1015.14 1016.09 1017.04 1017.15 1017.28 1017.50 1017.68 1017.88 1018.13 1018.26 1018.40 1018.51 1018.63 1018.73 1018.86 1018.97 1019.11 1019.20 1019.36 1019.43 1019.39 1019.32 1019.23 1019.13 1019.09 1019.01 1018.96
1004.27 1003.67 1001.75 1002.31 1003.64 1004.54 1005.07 1005.80 1006.24 1006.61 1007.45 1008.18 1008.43 1009.61 1010.88 1012.17 1012.54 1013.01 1013.50 1014.00 1014.02 1014.39 1015.16 1016.00 1017.05 1017.29 1017.43 1017.62 1017.79 1018.04 1018.22 1018.36 1018.51 1018.68 1018.81 1018.95 1019.03 1019.16 1019.28 1019.35 1019.51 1019.51 1019.50 1019.30 1019.27 1019.14 1019.12 1018.99 1018.87
1003.21 1002.46 1002.25 1002.31 1003.47 1004.23 1004.98 1005.68 1005.86 1006.56 1007.51 1007.96 1008.59 1009.14 1011.06 1012.03 1012.56 1013.05 1013.74 1013.90 1014.08 1014.53 1015.36 1015.73 1016.27 1017.10 1017.52 1017.73 1017.96 1018.18 1018.36 1018.52 1018.72 1018.82 1018.94 1019.07 1019.19 1019.23 1019.36 1019.41 1019.46 1019.36 1019.35 1019.23 1019.22 1019.13 1019.06 1018.92 1018.83
1003.41 1002.45 1002.11 1002.23 1002.35 1003.47 1004.77 1005.47 1006.06 1006.51 1007.35 1008.15 1008.47 1009.13 1010.46 1011.67 1012.63 1013.10 1013.57 1014.07 1014.47 1014.69 1015.12 1015.93 1016.38 1016.76 1016.90 1017.45 1018.07 1018.30 1018.49 1018.67 1018.81 1018.92 1019.06 1019.16 1019.21 1019.23 1019.23 1019.14 1019.27 1019.30 1019.28 1019.21 1019.05 1019.05 1019.00 1019.00 1018.84
1003.98 1001.82 1001.26 1001.60 1001.95 1003.11 1004.51 1005.02 1006.14 1006.78 1007.72 1008.41 1008.77 1008.92 1010.16 1011.79 1012.58 1013.05 1013.79 1014.48 1014.77 1014.96 1015.33 1015.58 1016.11 1016.68 1017.07 1017.24 1017.81 1018.31 1018.52 1018.71 1018.87 1018.90 1019.06 1019.08 1018.14 1018.41 1018.53 1019.00 1019.22 1019.17 1019.12 1019.12 1019.05 1019.08 1019.08 1018.90 1018.70
1002.99 1001.10 1001.09 1001.76 1001.91 1002.67 1004.11 1004.66 1005.76 1006.69 1007.42 1008.05 1008.96 1009.53 1010.64 1011.92 1012.49 1012.81 1013.32 1013.93 1014.34 1014.80 1015.24 1015.34 1015.56 1016.44 1016.70 1016.70 1017.47 1017.70 1017.84 1017.93 1018.10 1018.21 1018.46 1018.41 1018.42 1018.45 1018.73 1018.80 1019.07 1019.01 1019.04 1019.10 1019.07 1019.03 1018.89 1018.42 1017.69
1001.95 1001.04 1001.31 1001.70 1002.13 1002.27 1003.56 1004.48 1005.35 1005.84 1006.61 1007.25 1008.38 1009.62 1010.85 1011.74 1012.36 1012.68 1013.10 1013.46 1013.90 1014.47 1014.95 1015.53 1015.79 1016.36 1016.50 1016.59 1017.08 1017.26 1017.46 1017.47 1017.91 1018.29 1018.42 1018.27 1018.41 1018.24 1018.00 1017.94 1018.00 1018.14 1018.60 1017.63 1018.15 1018.14 1017.82 1018.39 1018.22
1001.62 1001.25 1001.39 1001.36 1002.27 1002.38 1002.98 1003.90 1004.77 1005.64 1005.84 1006.87 1007.99 1009.45 1010.57 1011.41 1011.98 1012.43 1012.87 1013.26 1013.70 1014.39 1014.87 1015.38 1015.73 1016.35 1016.42 1016.95 1017.08 1017.21 1017.08 1017.35 1017.56 1017.84 1018.48 1018.42 1018.31 1018.08 1018.19 1017.84 1018.13 1018.22 1017.91 1018.13 1018.22 1017.95 1018.53 1018.46 1018.31
1001.33 1000.96 1001.06 1001.17 1002.01 1002.26 1002.93 1003.66 1004.34 1005.40 1006.34 1006.88 1007.96 1009.36 1010.22 1010.97 1011.68 1012.19 1012.70 1013.25 1013.79 1014.33 1014.82 1015.23 1015.66 1016.36 1016.49 1016.98 1016.73 1016.86 1017.18 1017.31 1017.22 1017.61 1018.07 1018.06 1017.88 1018.31 1018.22 1018.42 1018.57 1018.50 1018.16 1017.95 1018.30 1018.32 1018.25 1018.40 1018.10
1000.51 1000.82 1000.87 1001.00 1001.60 1002.35 1002.90 1003.64 1004.47 1005.04 1005.98 1006.84 1008.01 1008.96 1009.81 1010.47 1011.12 1011.87 1012.43 1012.95 1013.59 1014.13 1014.57 1014.97 1015.53 1016.03 1016.44 1016.62 1016.95 1017.04 1017.20 1017.02 1017.21 1017.23 1017.54 1018.16 1017.97 1018.27 1018.20 1018.17 1018.26 1018.26 1018.05 1018.06 1018.27 1018.31 1018.37 1018.21 1017.94
1000.81 1000.83 1001.12 1001.03 1001.44 1002.22 1002.79 1003.66 1003.98 1004.63 1005.87 1006.71 1007.69 1008.57 1009.33 1010.00 1010.72 1011.29 1011.94 1012.59 1013.23 1013.73 1014.22 1014.58 1015.14 1015.53 1016.05 1016.45 1016.66 1016.89 1016.66 1016.90 1016.80 1017.05 1017.51 1017.82 1018.04 1018.30 1018.40 1017.98 1018.21 1018.04 1018.34 1018.61 1018.26 1018.22 1017.98 1017.85 1017.76
1000.59 1000.30 999.83 1000.67 1001.49 1002.13 1002.69 1001.61 1003.36 1004.53 1005.46 1006.25 1007.18 1008.04 1008.90 1009.51 1010.10 1010.82 1011.46 1012.04 1012.61 1013.17 1013.88 1014.49 1014.70 1015.02 1015.61 1015.91 1016.19 1016.36 1016.34 1016.41 1016.47 1016.59 1016.87 1017.61 1017.88 1018.10 1018.06 1017.98 1017.93 1018.12 1018.28 1017.89 1017.71 1017.79 1017.89 1017.65 1017.72
999.66 998.95 999.10 1000.27 1001.23 1001.94 1002.46 1001.39 1002.59 1004.08 1004.78 1005.54 1006.67 1007.46 1008.28 1009.07 1009.63 1010.19 1010.81 1011.52 1011.99 1012.80 1013.41 1014.10 1014.57 1014.84 1015.23 1015.61 1015.82 1016.19 1016.12 1016.51 1016.80 1016.80 1017.15 1016.98 1017.45 1017.67 1017.72 1017.70 1017.73 1018.13 1018.17 1018.52 1017.96 1017.82 1018.11 1017.71 1017.54
998.35 998.61 998.41 998.99 1000.60 1001.22 1001.69 1001.40 1002.67 1003.54 1004.06 1004.64 1005.89 1006.77 1007.49 1008.02 1008.59 1009.43 1010.23 1010.90 1011.53 1012.19 1013.01 1013.69 1014.17 1014.63 1015.02 1015.32 1015.81 1015.76 1016.20 1016.27 1016.34 1016.26 1016.77 1016.79 1017.34 1017.45 1017.75 1017.65 1017.71 1018.01 1018.32 1017.90 1017.88 1018.34 1017.93 1018.15 1017.86
998.07 998.13 998.06 998.38 999.38 1000.45 1000.44 1000.89 1001.41 1003.12 1003.63 1003.98 1004.82 1005.80 1006.45 1006.90 1007.73 1008.71 1009.60 1010.27 1010.92 1011.57 1012.34 1013.07 1013.61 1014.09 1014.64 1015.16 1015.06 1015.14 1015.13 1015.47 1015.85 1015.68 1016.50 1016.77 1016.77 1016.94 1017.18 1017.23 1017.49 1017.67 1017.81 1017.85 1018.23 1018.25 1017.94 1017.77 1017.72
998.02 997.79 997.68 997.87 999.23 999.98 999.58 1000.07 1000.76 1001.54 1002.79 1003.18 1003.85 1004.67 1005.46 1006.14 1006.95 1007.95 1008.73 1009.36 1010.02 1010.83 1011.63 1012.37 1012.99 1013.63 1014.24 1014.31 1014.47 1014.52 1014.79 1014.67 1015.06 1015.06 1016.07 1016.22 1016.49 1016.81 1016.99 1017.06 1017.25 1017.45 1017.42 1018.12 1018.33 1018.43 1017.93 1017.62 1017.88
997.85 997.38 997.34 997.45 999.06 999.58 999.17 999.37 999.65 1000.24 1001.54 1002.47 1002.99 1003.59 1004.33 1005.04 1005.90 1006.92 1007.77 1008.42 1009.13 1009.89 1010.80 1011.53 1012.27 1012.90 1013.46 1013.91 1014.29 1014.62 1014.94 1015.07 1015.06 1015.23 1015.74 1015.88 1016.25 1016.51 1016.75 1016.95 1016.91 1017.49 1017.89 1017.47 1018.16 1018.28 1018.32 1017.49 1017.82
997.24 997.36 997.46 997.55 998.18 998.27 999.01 997.87 997.97 998.51 999.93 1001.02 1001.89 1002.41 1003.06 1003.88 1004.97 1005.83 1006.84 1007.63 1008.22 1008.98 1009.90 1010.67 1011.52 1012.24 1012.84 1013.36 1013.41 1013.77 1013.85 1013.74 1013.76 1014.20 1014.45 1014.99 1015.70 1016.06 1016.48 1016.83 1017.16 1017.55 1017.26 1017.67 1017.89 1018.11 1018.26 1018.28 1017.55
997.18 997.07 997.54 997.66 997.59 997.97 997.66 998.03 997.09 997.88 998.22 998.95 999.93 1000.68 1001.58 1002.48 1003.67 1004.73 1005.70 1006.73 1007.44 1008.30 1009.04 1009.80 1010.74 1011.49 1012.04 1012.63 1012.98 1013.17 1013.67 1013.35 1013.67 1013.95 1014.58 1015.25 1015.46 1015.86 1016.13 1016.57 1016.99 1017.32 1017.33 1017.72 1018.00 1018.17 1018.44 1018.11 1018.00
997.87 997.57 997.32 997.51 997.47 996.78 996.76 997.09 996.45 996.36 997.04 997.13 997.82 999.18 1000.21 1001.26 1002.49 1003.77 1004.82 1005.78 1006.58 1007.37 1008.18 1009.00 1009.83 1010.61 1011.33 1011.89 1012.43 1012.87 1012.93 1013.25 1013.10 1013.69 1014.19 1014.70 1014.98 1015.51 1015.99 1016.42 1016.76 1016.97 1017.11 1017.66 1017.82 1018.11 1018.35 1018.46 1018.47
997.61 997.25 996.97 997.00 996.40 995.77 996.21 996.28 995.97 995.62 995.68 996.11 996.06 996.92 998.86 1000.11 1001.39 1002.52 1003.64 1004.55 1005.53 1006.31 1007.20 1008.10 1008.93 1009.68 1010.43 1011.04 1011.65 1012.26 1012.65 1013.01 1013.29 1013.58 1013.97 1014.19 1014.60 1014.99 1015.70 1016.46 1016.87 1017.00 1017.41 1017.58 1017.82 1018.19 1018.25 1018.47 1018.36
996.39 996.33 995.40 995.13 995.21 995.60 996.17 995.17 994.99 995.59 995.53 995.41 995.26 996.03 997.20 998.67 999.80 1000.91 1002.13 1003.30 1004.34 1005.29 1006.23 1007.18 1007.93 1008.79 1009.44 1010.13 1010.85 1011.51 1012.02 1012.44 1012.86 1013.19 1013.38 1013.93 1014.32 1014.81 1015.41 1016.49 1016.72 1016.92 1017.03 1017.32 1017.56 1017.73 1018.05 1018.19 1018.47
995.30 995.27 995.61 995.05 994.93 994.76 994.45 995.10 995.25 994.80 994.88 994.68 994.84 995.38 995.87 997.09 998.09 999.45 1000.84 1001.95 1003.09 1004.19 1005.15 1006.07 1007.01 1007.87 1008.52 1009.25 1010.11 1010.69 1011.35 1011.91 1012.09 1012.74 1013.48 1014.03 1014.53 1014.79 1015.41 1015.91 1016.61 1016.79 1017.09 1017.34 1017.61 1017.59 1017.75 1017.90 1018.02
994.21 995.13 995.36 994.49 993.86 993.59 994.03 993.65 993.48 993.75 993.60 993.49 993.66 994.38 994.93 995.98 997.02 997.97 999.21 1000.36 1001.59 1002.83 1003.90 1005.03 1005.99 1006.87 1007.76 1008.32 1009.09 1009.75 1010.47 1011.32 1012.03 1012.32 1012.86 1013.35 1014.12 1015.37 1015.70 1016.08 1016.23 1016.42 1016.95 1017.58 1017.70 1017.30 1017.34 1017.54 1017.41
994.06 993.63 993.93 994.21 994.01 993.35 993.20 992.73 992.99 993.38 993.40 993.13 992.74 993.43 993.92 994.86 996.00 996.87 997.74 999.04 1000.57 1001.71 1002.72 1003.76 1004.95 1005.91 1006.65 1007.32 1007.89 1008.69 1009.52 1010.42 1011.32 1011.98 1013.31 1014.10 1014.27 1014.65 1015.99 1016.32 1016.33 1016.54 1016.35 1016.99 1017.56 1017.27 1016.97 1017.03 1017.26
993.09 993.32 993.49 992.97 993.24 993.02 992.81 991.77 992.03 992.27 992.78 992.75 992.52 992.31 992.70 993.92 994.88 996.05 996.87 998.12 999.41 1000.39 1001.45 1002.39 1003.48 1004.57 1005.41 1005.98 1006.85 1007.90 1008.83 1009.67 1010.44 1011.60 1012.67 1013.34 1014.52 1014.14 1014.72 1016.05 1016.98 1016.66 1016.23 1016.43 1016.91 1016.99 1016.41 1016.45 1016.55
Wind_Speed
16 15 6 8 8 5 13 9 8 8 9 11 7 5 10 9 3 8 12 14 16 12 12 12 9 10 13 12 13 13 14 13 12 12 11 11 11 11 12 11 10 10 10 10 9 9 10 10 9
13 10 6 7 4 5 9 8 10 11 13 13 12 8 6 6 8 17 15 15 13 13 13 13 7 9 12 12 12 13 13 12 12 10 9 9 8 9 10 10 9 9 9 8 8 9 9 8 7
13 11 8 5 4 9 11 8 11 12 11 4 5 10 5 9 14 16 19 17 14 11 9 12 7 9 12 11 11 12 12 12 10 9 8 7 7 7 8 8 8 8 8 8 8 7 7 7 7
8 7 7 2 12 7 10 10 13 12 8 3 9 12 11 13 11 11 18 15 14 13 10 11 7 9 11 11 12 12 12 11 10 10 8 7 7 6 6 7 8 7 5 5 5 4 5 6 6
6 4 4 9 11 9 9 11 9 6 6 8 9 12 14 7 10 18 16 13 13 14 11 13 9 11 12 12 12 12 11 10 10 10 9 7 6 5 5 5 5 4 3 3 2 3 5 5 6
8 5 3 10 12 8 8 10 6 4 8 7 13 16 11 12 16 15 14 11 12 13 11 13 10 11 13 13 13 12 12 10 9 9 8 6 4 3 4 3 2 2 2 1 3 5 5 5 6
9 7 5 9 10 9 9 9 5 8 10 9 17 14 12 15 15 15 15 14 13 13 9 11 12 11 11 12 12 11 11 10 9 8 7 6 4 3 3 1 1 2 3 5 6 5 5 5 5
6 7 4 2 6 13 11 11 7 8 8 14 10 7 14 18 18 16 15 13 12 11 12 10 8 10 11 12 11 11 10 9 8 7 6 5 4 2 4 6 3 3 5 6 6 4 5 5 5
5 8 4 5 4 12 14 10 7 7 12 8 9 6 20 21 19 17 16 12 12 10 11 12 12 11 10 10 10 10 9 8 8 8 6 8 4 3 3 8 5 5 3 5 3 4 4 2 5
9 8 6 4 1 13 15 11 13 10 13 10 11 8 21 21 19 19 18 16 15 14 12 11 11 11 10 8 10 8 8 9 8 8 7 5 1 1 5 1 2 2 3 1 4 2 3 10 5
8 12 7 2 2 12 18 12 12 10 12 12 16 17 23 22 20 19 17 16 16 15 12 12 10 9 10 6 7 5 5 5 6 7 6 4 3 2 2 0 2 2 5 3 5 3 2 5 5
11 10 9 4 8 11 17 16 12 10 4 13 14 19 24 23 20 19 18 16 15 15 13 13 12 10 9 5 7 6 6 6 5 7 7 5 5 4 2 2 1 2 2 2 2 3 4 5 6
13 11 8 8 8 12 14 15 10 12 9 11 15 20 24 22 21 19 18 16 15 15 14 13 12 11 9 9 6 6 6 7 7 6 7 7 6 2 3 2 3 4 2 0 3 3 4 5 5
4 8 8 9 11 12 14 11 11 12 13 12 18 22 23 23 22 19 18 17 16 15 15 14 14 12 11 10 9 7 7 7 7 6 7 9 7 3 5 4 4 3 2 2 3 4 6 5 5
8 11 5 9 13 10 13 11 14 12 13 13 18 19 21 22 21 21 19 18 17 15 15 15 14 14 13 12 10 9 7 8 7 7 7 8 7 5 7 4 5 5 1 4 5 4 3 5 5
14 14 13 11 15 9 15 12 17 15 16 15 17 18 20 22 22 20 19 19 18 16 16 15 13 14 14 12 10 9 9 8 8 8 6 8 8 8 7 4 5 4 4 5 4 4 5 5 5
15 14 13 12 14 8 17 7 16 15 16 15 15 18 19 19 20 20 20 19 18 17 16 16 16 15 14 13 10 10 10 7 4 6 8 9 9 9 7 6 6 6 5 4 6 5 4 5 5
18 17 11 14 16 13 17 10 5 13 17 16 17 17 19 20 23 20 20 18 18 17 16 16 14 15 14 9 9 9 8 9 9 8 7 9 6 8 6 6 6 5 5 6 3 4 5 5 5
17 15 13 15 15 17 15 13 11 11 14 16 17 18 19 20 20 19 19 19 18 17 17 16 16 15 11 10 10 10 10 8 7 8 8 7 7 6 5 6 7 5 5 3 3 6 5 6 1
20 18 16 14 8 15 12 14 12 13 16 17 19 19 19 19 19 20 20 20 20 19 17 17 16 16 14 11 8 7 6 9 9 8 7 7 8 8 7 6 5 3 3 3 4 4 6 3 2
22 21 18 15 11 15 10 14 15 16 15 16 17 19 20 20 21 21 22 21 20 19 19 17 17 16 15 15 8 7 6 6 6 7 8 9 8 7 7 5 3 3 5 3 3 3 3 5 2
23 22 18 15 12 13 16 12 14 15 16 18 20 21 21 22 21 20 22 21 21 20 18 18 17 16 15 15 12 12 9 9 8 6 5 3 6 6 6 6 5 4 3 1 3 2 4 4 3
23 21 19 20 15 19 15 11 12 5 14 19 23 24 24 23 23 22 22 22 21 19 18 17 17 16 15 15 14 11 12 9 7 6 4 5 5 7 8 8 7 5 6 5 2 2 3 2 5
19 15 12 17 15 19 23 15 15 13 14 15 16 23 25 24 23 22 21 21 21 20 19 17 17 16 16 16 16 15 12 11 8 8 6 7 7 8 9 9 7 6 4 5 4 3 4 4 4
23 17 12 16 16 15 18 20 15 12 12 15 16 18 23 23 23 22 23 22 21 22 21 18 18 17 17 17 17 17 16 14 13 10 9 7 7 6 9 9 7 6 6 4 4 4 2 4 4
25 25 16 23 15 14 21 16 17 18 18 21 13 13 20 24 24 25 25 24 23 23 22 21 19 18 18 18 17 15 16 12 12 12 9 8 7 6 6 8 7 8 7 6 6 6 6 4 5
27 27 24 25 19 17 16 14 23 17 15 16 14 13 17 22 26 26 26 25 23 23 22 21 19 19 19 18 15 16 15 16 12 11 10 8 6 5 6 9 8 7 8 7 8 7 6 5 7
29 20 25 21 26 22 19 18 11 18 19 17 14 16 17 20 23 26 26 27 24 24 22 22 21 20 18 18 17 15 16 15 14 12 11 11 8 6 7 8 8 9 7 8 9 8 8 7 7
21 24 21 22 21 19 18 18 15 15 15 15 12 14 15 18 22 23 26 25 24 23 22 22 20 20 20 19 18 17 16 16 14 13 11 9 10 10 7 7 8 9 9 9 10 10 8 7 8
26 25 26 18 26 20 22 17 12 13 17 21 20 14 9 12 18 21 23 23 24 25 23 22 21 20 20 19 17 17 16 15 16 14 13 13 8 12 11 6 6 9 9 10 12 12 10 9 10
Wind_Direction
164 175 189 209 237 139 138 185 123 132 122 68 58 79 74 32 79 70 133 133 132 133 125 132 118 117 122 123 116 120 120 117 112 106 103 97 91 83 82 83 83 83 81 76 73 62 55 51 45
165 175 225 271 258 109 83 122 102 77 104 119 93 137 103 84 54 116 133 134 145 128 133 128 103 113 122 128 119 121 125 122 117 117 107 102 94 90 86 84 84 82 76 74 68 57 49 43 36
178 213 265 291 16 46 98 108 99 114 131 105 107 58 75 98 133 135 124 142 146 130 122 101 112 121 132 132 125 127 125 122 125 126 117 107 101 94 87 83 84 78 74 67 60 51 45 35 23
186 193 225 18 79 76 97 117 124 130 126 86 106 89 85 111 113 123 138 148 143 139 137 115 128 128 132 134 132 125 127 130 133 139 134 128 118 106 94 91 86 83 73 64 57 44 18 11 13
231 250 190 81 77 86 107 124 148 126 121 131 124 113 114 115 116 131 141 155 148 148 145 138 142 136 136 141 145 142 141 136 141 147 149 145 136 112 101 91 90 86 76 65 32 18 358 352 352
220 255 160 83 96 107 121 148 147 102 120 123 129 122 120 125 144 144 148 150 155 146 143 136 139 135 140 144 153 157 150 148 149 152 154 148 137 113 97 94 75 53 38 355 345 8 353 354 355
275 248 51 95 109 141 140 159 180 134 148 147 139 130 125 150 143 148 149 158 148 140 146 146 151 143 143 147 153 158 157 155 153 154 158 155 168 157 133 194 61 351 356 345 354 22 8 5 17
283 272 161 229 147 113 147 170 124 145 119 133 149 159 157 150 150 147 149 148 155 157 142 148 154 159 162 153 153 160 161 161 155 154 154 167 178 177 180 233 133 355 359 2 4 50 43 48 50
259 249 144 97 249 125 151 155 155 106 138 174 161 150 140 147 154 154 148 159 156 163 163 159 160 158 167 151 157 170 170 167 159 165 164 188 232 166 212 57 3 302 322 356 38 65 71 244 159
236 273 84 31 168 147 160 167 157 172 159 172 157 127 143 157 163 165 166 171 169 166 171 172 163 164 162 172 156 178 177 183 191 189 170 229 185 316 308 254 289 239 281 197 112 107 224 245 6
208 264 88 168 194 160 166 176 167 172 179 178 172 154 157 165 173 174 175 174 174 171 173 170 174 176 175 155 181 187 188 193 195 209 225 215 244 216 258 37 181 157 178 209 188 184 18 11 344
254 238 278 285 164 185 169 161 178 175 113 169 169 164 164 173 177 180 182 180 177 173 178 179 173 182 195 164 196 193 200 204 212 203 206 237 228 197 266 313 68 231 15 9 339 4 354 334 328
240 263 265 258 202 188 175 173 163 180 134 159 162 168 174 178 180 184 187 182 182 180 184 187 181 189 200 193 199 207 218 202 213 203 197 240 240 222 284 340 297 325 273 321 303 319 335 322 306
278 251 267 250 187 178 187 170 174 177 163 168 168 175 180 184 184 185 190 188 190 188 191 192 195 197 205 211 212 217 213 231 223 219 218 215 255 185 254 240 260 261 276 314 306 342 321 320 316
227 237 214 225 170 170 199 176 209 141 164 166 179 182 183 189 188 190 190 193 195 195 196 198 199 195 205 207 207 216 222 221 222 223 219 229 235 258 267 261 259 257 273 262 241 263 254 294 316
218 229 219 159 173 161 198 195 197 158 175 177 182 182 187 192 192 194 194 197 194 200 200 203 205 200 205 212 210 220 222 221 224 223 219 226 226 232 241 241 249 259 262 265 263 294 312 293 313
207 228 217 153 191 157 203 242 158 176 190 182 185 185 188 193 197 195 198 198 197 199 199 204 208 211 208 211 219 222 223 237 246 226 237 217 234 244 248 251 252 232 260 282 286 300 306 309 299
208 225 190 197 187 193 200 223 136 184 202 196 188 191 193 196 200 195 199 196 199 195 199 203 206 211 211 213 219 230 229 220 227 236 222 228 216 224 223 239 262 255 237 248 308 323 317 306 315
226 210 217 215 155 203 214 221 188 189 209 209 197 198 199 204 194 194 196 196 197 199 199 203 206 205 209 205 214 207 222 220 231 246 227 218 221 230 237 234 224 238 268 329 303 280 245 301 18
240 226 220 192 164 219 217 233 227 193 212 210 205 204 207 205 193 196 196 200 200 198 202 203 210 209 208 209 213 242 227 225 199 224 234 238 234 225 226 246 232 213 285 244 287 279 300 267 29
225 231 219 218 179 229 250 233 232 211 205 213 215 211 208 207 201 196 199 200 200 200 201 206 208 212 208 227 205 214 231 256 212 215 213 210 219 218 231 201 256 176 282 244 215 218 281 292 100
226 224 235 222 204 225 205 246 226 215 203 211 211 212 213 208 205 202 202 203 203 203 203 206 209 211 212 208 220 209 223 224 218 222 225 242 218 216 196 189 180 213 268 147 182 203 291 268 299
233 228 219 247 219 241 178 243 257 178 227 215 216 211 211 208 207 205 201 203 207 203 203 206 208 211 215 203 222 207 223 223 231 214 213 233 185 208 197 188 184 189 226 163 247 214 234 216 308
228 251 236 235 236 231 234 212 231 216 230 242 221 212 210 207 205 204 205 202 205 204 203 205 205 210 209 209 204 219 223 229 224 199 207 219 208 194 205 194 194 188 197 202 219 211 217 281 306
218 213 207 216 224 241 209 234 229 250 220 241 261 201 209 205 202 200 202 201 202 204 202 203 204 209 207 206 209 210 216 215 222 224 209 227 216 210 187 205 200 195 203 196 232 202 230 223 263
214 217 226 220 221 218 230 236 232 234 260 259 252 248 192 203 201 201 199 202 201 202 202 204 202 208 206 206 208 211 212 217 217 215 231 209 221 206 200 202 206 221 203 208 194 202 231 211 234
202 221 230 244 228 246 225 208 239 245 245 246 242 217 200 203 204 198 198 201 200 201 200 202 205 205 206 205 205 209 208 218 214 222 201 204 216 210 190 194 207 215 216 212 202 233 205 228 230
229 209 219 230 237 227 234 240 219 218 226 240 208 215 209 201 205 202 199 198 198 199 201 203 205 206 206 206 205 208 207 205 209 207 196 208 192 225 180 198 198 196 204 228 221 227 212 228 242
207 222 219 236 227 243 239 234 224 235 257 270 264 210 218 203 203 206 202 201 195 200 201 203 203 205 205 203 204 207 204 199 200 201 185 202 173 168 191 209 206 210 199 218 231 248 259 231 239
223 213 215 222 223 237 248 243 211 224 229 240 246 262 223 211 204 206 206 199 194 201 200 202 202 204 204 203 201 202 202 198 194 187 182 174 185 156 167 169 243 245 226 222 230 237 241 226 234